Regional Weather Roundup
Issued by NWS

Home | Current Version | Previous Version | Text Only | Print | Product List | Glossary On
Versions: 1 2 3 4 5 6 7 8 9 10 11 12 13 14 15 16 17 18 19 20 21 22 23 24 25 26 27 28 29 30 31 32 33 34 35 36 37 38 39 40 41 42 43 44 45 46 47 48 49 50
000
ASUS43 KLMK 251010
RWRKY
KENTUCKY REGIONAL WEATHER ROUNDUP
NATIONAL WEATHER SERVICE LOUISVILLE KY
600 AM EDT SAT OCT 25 2014

NOTE "FAIR" INDICATES FEW OR NO CLOUDS BELOW 12,000 FEET
WITH NO SIGNIFICANT WEATHER AND/OR OBSTRUCTIONS TO VISIBILITY.

KYZ001>023-026-027-061>063-070>075-251100-
WESTERN AND SOUTH CENTRAL KENTUCKY

CITY           SKY/WX    TMP DP  RH WIND       PRES   REMARKS
PADUCAH        CLOUDY    58  53  84 SW8       30.03R
HENDERSON      CLOUDY   N/A N/A N/A SW8       30.02R
OWENSBORO      CLOUDY    56  53  89 S3        30.04R
HOPKINSVILLE   CLEAR     49  49 100 S3        30.05F
BOWLING GREEN  PTCLDY    44  41  89 CALM      30.07F
GLASGOW        CLEAR     42  42 100 CALM      30.08S
$$

KYZ024-025-028>034-038-045-046-053-251100-
NORTH CENTRAL KENTUCKY

CITY           SKY/WX    TMP DP  RH WIND       PRES   REMARKS
LOUISVILLE/SDF PTCLDY    50  46  86 CALM      30.03S
LOUISVILLE/LOU PTCLDY    47  45  93 SW3       30.04S
FORT KNOX      PTCLDY    46  45  95 S6        30.02F
$$

KYZ035>037-039>044-047>052-055>060-089>105-251100-
NORTHEAST KENTUCKY

CITY           SKY/WX    TMP DP  RH WIND       PRES   REMARKS
LEXINGTON      MOCLDY    48  41  76 S8        30.04S
COVINGTON      MOCLDY    48  43  82 S5        30.00F
FRANKFORT      PTCLDY    44  40  85 CALM      30.02F
$$

KYZ054-064>069-076>088-106>120-251100-
SOUTHEAST KENTUCKY

CITY           SKY/WX    TMP DP  RH WIND       PRES   REMARKS
JACKSON        CLEAR     43  40  89 CALM      30.06S
LONDON         CLEAR     40  37  89 CALM      30.08S
SOMERSET       MOCLDY    37  37 100 CALM      30.09F
MIDDLESBORO    FOG       38  38 100 CALM      30.12R VSB 1/4
MONTICELLO     SUNNY     40  40 100 CALM      30.10F FOG
$$




USA.gov is the U.S. government's official web portal to all federal, state and local government web resources and services.